Regional Weather Roundup
Issued by NWS Northern Indiana

Home | Current Version | Previous Version | Text Only | Print | Product List | Glossary Off
Versions: 1 2 3 4 5 6 7 8 9 10 11 12 13 14 15 16 17 18 19 20 21 22 23 24 25 26 27 28 29 30 31 32 33 34 35 36 37 38 39 40 41 42 43 44 45 46 47 48 49 50

090
ASUS43 KIWX 222101
RWRIWX

KIWX WEATHER ROUNDUP
NATIONAL WEATHER SERVICE NORTHERN INDIANA
500 PM EDT TUE AUG 22 2017

NOTE: "FAIR" INDICATES FEW OR NO CLOUDS BELOW 12,000 FEET WITH NO
SIGNIFICANT WEATHER AND/OR OBSTRUCTIONS TO VISIBILITY.

* THESE STATIONS ARE NOT UNDER NWS QUALITY CONTROL. THEY ALSO MAY NOT
  REPORT WEATHER SUCH AS PRECIPITATION OR FOG.

INZ001>027-222200-
NORTHERN INDIANA

CITY           SKY/WX    TMP DP  RH WIND       PRES   REMARKS
GARY*          MOSUNNY   81  50  34 W20       29.90S
MICHIGAN CITY* MOSUNNY   77  61  57 NW10      29.90S
SOUTH BEND     PTSUNNY   77  63  61 NW14G23   29.89S
ELKHART*       PTSUNNY   75  61  60 NW12G17   29.88S
GOSHEN         MOSUNNY   77  59  53 NW17      29.88R
MONTICELLO*    MOSUNNY   78  65  64 W16       29.90R
FORT WAYNE     MOSUNNY   77  66  68 W14       29.85F

$$
INZ028>050-222200-
CENTRAL INDIANA

CITY           SKY/WX    TMP DP  RH WIND       PRES   REMARKS
LAFAYETTE      MOSUNNY   78  67  68 NW15G25   29.90S
KOKOMO*        MOSUNNY   78  68  71 W16G22    29.89F
MUNCIE*        PTSUNNY   80  67  64 W12       29.89S
INDIANAPOLIS   PTSUNNY   80  66  62 W14G20    29.91S

$$
MIZ043>046-050>051-056>058-064>065-071>073-077>080-222200-
SOUTHWEST LOWER MICHIGAN

CITY           SKY/WX    TMP DP  RH WIND       PRES   REMARKS
BATTLE CREEK   MOSUNNY   76  62  62 NW15      29.85S
BENTON HARBOR  MOSUNNY   74  61  63 NW9G22    29.89R
COLDWATER*     PTSUNNY   77  60  55 W17G24    29.85S
HILLSDALE*     PTSUNNY   75  61  60 W18G25    29.84S
HOLLAND        SUNNY     72  57  59 NW17G26   29.89R
GRAND RAPIDS   MOSUNNY   76  57  51 NW16G28   29.85R
KALAMAZOO      PTSUNNY   77  57  50 W17G23    29.86S
STURGIS*       MOSUNNY   75  61  60 NW12G17   29.86R
THREE RIVERS*  PTSUNNY   78  61  56 NW14G21   29.87R

$$
OHZ001>008-015>018-024>025-222200-
NORTHWEST OHIO

CITY           SKY/WX    TMP DP  RH WIND       PRES   REMARKS
DEFIANCE       LGT RAIN  74  66  76 W15G24    29.83S
FINDLAY        CLOUDY    80  65  59 W17       29.82F
TOLEDO EXPRESS LGT RAIN  73  70  90 W14       29.81S FOG
TOLEDO METCALF PTSUNNY   80  67  64 SW17G30   29.80F
LIMA           MOSUNNY   78  67  68 W14       29.85F

$$
AND FOR LAKE MICHIGAN COASTAL AND OPEN LAKE BUOY OBSERVATIONS

STATION/POSITION TEMP    WIND        PRES    VSBY  WAVE
                 AIR SEA DIR/SP/G                  HT/PER
                 (F)     (DEG/KT/KT) (MB)    (MI)  (FT/S)
CALUMET HARBOR    80     290/  8/ 15 1011.7R
MICHIGAN CITY     74     260/  9/ 10   N/A
BURNS HARBOR      75     340/  6/  8 1012.9S
SAINT JOSEPH      76     270/ 11/ 14 1012.2
4 MI NW BRIDGMAN  73 74  320/ 14/ 21 1012.0S         4/ 5
MICHIGAN CITY     74 74  300/  6/  8   N/A           3/ 5

$$
&&




USA.gov is the U.S. government's official web portal to all federal, state and local government web resources and services.